Time,TemperatureF,DewpointF,PressureIn,WindDirection,WindDirectionDegrees,WindSpeedMPH,WindSpeedGustMPH,Humidity,HourlyPrecipIn,Conditions,Clouds,dailyrainin,SoftwareType,DateUTC
2013-05-08 00:00:00,64.3,48.7,29.97,ESE,110,7.0,8.0,57,0.00,,,0.00,Wunderground v.1.15,2013-05-08 05:00:00,
2013-05-08 00:02:00,64.1,48.5,29.97,ESE,112,8.0,8.0,57,0.00,,,0.00,Wunderground v.1.15,2013-05-08 05:02:00,
2013-05-08 00:04:00,64.1,49.0,29.97,ESE,114,8.0,8.0,58,0.00,,,0.00,Wunderground v.1.15,2013-05-08 05:04:00,
2013-05-08 00:08:00,64.0,48.9,29.97,ESE,117,7.0,8.0,58,0.00,,,0.00,Wunderground v.1.15,2013-05-08 05:08:00,
2013-05-08 00:10:00,64.0,48.9,29.97,ESE,120,7.0,7.0,58,0.00,,,0.00,Wunderground v.1.15,2013-05-08 05:10:00,
2013-05-08 00:14:00,63.9,48.8,29.97,ESE,120,7.0,7.0,58,0.00,,,0.00,Wunderground v.1.15,2013-05-08 05:14:00,
2013-05-08 00:16:00,63.9,48.4,29.97,ESE,108,7.0,7.0,57,0.00,,,0.00,Wunderground v.1.15,2013-05-08 05:16:00,
2013-05-08 00:20:00,63.8,48.7,29.97,ESE,115,6.0,7.0,58,0.00,,,0.00,Wunderground v.1.15,2013-05-08 05:20:00,
2013-05-08 00:22:00,63.7,48.6,29.97,ESE,115,6.0,7.0,58,0.00,,,0.00,Wunderground v.1.15,2013-05-08 05:22:00,
2013-05-08 00:24:00,63.6,48.5,29.97,ESE,116,6.0,7.0,58,0.00,,,0.00,Wunderground v.1.15,2013-05-08 05:24:00,
2013-05-08 00:26:00,63.4,48.8,29.97,ESE,117,6.0,7.0,59,0.00,,,0.00,Wunderground v.1.15,2013-05-08 05:26:00,
2013-05-08 00:30:00,63.3,48.3,29.97,SE,127,6.0,7.0,58,0.00,,,0.00,Wunderground v.1.15,2013-05-08 05:30:00,
2013-05-08 00:32:00,63.4,48.4,29.97,ESE,117,6.0,7.0,58,0.00,,,0.00,Wunderground v.1.15,2013-05-08 05:32:00,
2013-05-08 00:34:00,63.4,47.9,29.97,ESE,114,6.0,8.0,57,0.00,,,0.00,Wunderground v.1.15,2013-05-08 05:34:00,
2013-05-08 00:36:00,63.5,48.5,29.97,ESE,115,7.0,8.0,58,0.00,,,0.00,Wunderground v.1.15,2013-05-08 05:36:00,
2013-05-08 00:42:00,63.4,48.4,29.97,ESE,117,7.0,7.0,58,0.00,,,0.00,Wunderground v.1.15,2013-05-08 05:42:00,
2013-05-08 00:46:00,63.2,48.2,29.97,ESE,118,7.0,7.0,58,0.00,,,0.00,Wunderground v.1.15,2013-05-08 05:46:00,
2013-05-08 00:48:00,63.0,48.4,29.97,ESE,121,6.0,7.0,59,0.00,,,0.00,Wunderground v.1.15,2013-05-08 05:48:00,
2013-05-08 01:54:00,61.7,47.2,29.96,ESE,117,6.0,7.0,59,0.00,,,0.00,Wunderground v.1.15,2013-05-08 06:54:00,
2013-05-08 01:58:00,61.4,47.4,29.96,ESE,117,6.0,7.0,60,0.00,,,0.00,Wunderground v.1.15,2013-05-08 06:58:00,
2013-05-08 02:00:00,61.3,46.8,29.95,ESE,114,6.0,7.0,59,0.00,,,0.00,Wunderground v.1.15,2013-05-08 07:00:00,
2013-05-08 02:02:00,61.2,46.8,29.96,ESE,121,6.0,7.0,59,0.00,,,0.00,Wunderground v.1.15,2013-05-08 07:02:00,
2013-05-08 02:04:00,61.3,46.8,29.96,ESE,120,6.0,7.0,59,0.00,,,0.00,Wunderground v.1.15,2013-05-08 07:04:00,
2013-05-08 02:10:00,61.1,46.7,29.96,ESE,119,6.0,6.0,59,0.00,,,0.00,Wunderground v.1.15,2013-05-08 07:10:00,
2013-05-08 02:12:00,61.0,47.0,29.96,ESE,120,5.0,7.0,60,0.00,,,0.00,Wunderground v.1.15,2013-05-08 07:12:00,
2013-05-08 02:16:00,60.8,46.8,29.96,ESE,117,5.0,7.0,60,0.00,,,0.00,Wunderground v.1.15,2013-05-08 07:16:00,
2013-05-08 02:18:00,60.8,46.8,29.96,ESE,115,6.0,7.0,60,0.00,,,0.00,Wunderground v.1.15,2013-05-08 07:18:00,
2013-05-08 02:22:00,60.6,46.6,29.96,ESE,117,6.0,7.0,60,0.00,,,0.00,Wunderground v.1.15,2013-05-08 07:22:00,
2013-05-08 02:26:00,60.5,46.5,29.95,ESE,113,6.0,7.0,60,0.00,,,0.00,Wunderground v.1.15,2013-05-08 07:26:00,
2013-05-08 02:28:00,60.4,46.4,29.96,ESE,116,6.0,7.0,60,0.00,,,0.00,Wunderground v.1.15,2013-05-08 07:28:00,
2013-05-08 02:32:00,60.3,46.8,29.95,ESE,115,6.0,7.0,61,0.00,,,0.00,Wunderground v.1.15,2013-05-08 07:32:00,
2013-05-08 02:34:00,60.1,46.6,29.95,ESE,114,6.0,7.0,61,0.00,,,0.00,Wunderground v.1.15,2013-05-08 07:34:00,
2013-05-08 02:36:00,60.0,46.5,29.96,ESE,114,6.0,7.0,61,0.00,,,0.00,Wunderground v.1.15,2013-05-08 07:36:00,
2013-05-08 02:42:00,59.8,46.7,29.96,ESE,118,6.0,7.0,62,0.00,,,0.00,Wunderground v.1.15,2013-05-08 07:42:00,
2013-05-08 02:46:00,60.1,46.6,29.95,ESE,119,6.0,7.0,61,0.00,,,0.00,Wunderground v.1.15,2013-05-08 07:46:00,
2013-05-08 02:48:00,60.2,46.3,29.96,ESE,122,6.0,7.0,60,0.00,,,0.00,Wunderground v.1.15,2013-05-08 07:48:00,
2013-05-08 02:50:00,60.3,46.4,29.96,ESE,117,6.0,7.0,60,0.00,,,0.00,Wunderground v.1.15,2013-05-08 07:50:00,
2013-05-08 02:54:00,60.3,46.4,29.96,SE,124,6.0,7.0,60,0.00,,,0.00,Wunderground v.1.15,2013-05-08 07:54:00,
2013-05-08 02:56:00,60.4,46.0,29.96,SE,126,6.0,7.0,59,0.00,,,0.00,Wunderground v.1.15,2013-05-08 07:56:00,
2013-05-08 02:58:00,60.4,46.4,29.96,SE,124,5.0,7.0,60,0.00,,,0.00,Wunderground v.1.15,2013-05-08 07:58:00,
2013-05-08 03:02:00,60.1,46.2,29.96,ESE,119,5.0,7.0,60,0.00,,,0.00,Wunderground v.1.15,2013-05-08 08:02:00,
2013-05-08 03:04:00,59.9,46.0,29.96,ESE,123,5.0,7.0,60,0.00,,,0.00,Wunderground v.1.15,2013-05-08 08:04:00,
2013-05-08 03:06:00,59.9,46.0,29.96,SE,127,5.0,7.0,60,0.00,,,0.00,Wunderground v.1.15,2013-05-08 08:06:00,
2013-05-08 03:08:00,59.9,46.0,29.96,SE,124,5.0,7.0,60,0.00,,,0.00,Wunderground v.1.15,2013-05-08 08:08:00,
2013-05-08 03:12:00,60.1,45.7,29.96,SE,124,5.0,7.0,59,0.00,,,0.00,Wunderground v.1.15,2013-05-08 08:12:00,
2013-05-08 03:14:00,60.2,45.8,29.96,ESE,123,5.0,7.0,59,0.00,,,0.00,Wunderground v.1.15,2013-05-08 08:14:00,
2013-05-08 03:20:00,60.3,45.5,29.96,ESE,122,5.0,7.0,58,0.00,,,0.00,Wunderground v.1.15,2013-05-08 08:20:00,
2013-05-08 03:22:00,60.2,45.8,29.96,ESE,119,5.0,7.0,59,0.00,,,0.00,Wunderground v.1.15,2013-05-08 08:22:00,
2013-05-08 03:24:00,60.1,45.7,29.96,ESE,117,5.0,7.0,59,0.00,,,0.00,Wunderground v.1.15,2013-05-08 08:24:00,
2013-05-08 03:26:00,60.0,45.6,29.96,ESE,118,5.0,7.0,59,0.00,,,0.00,Wunderground v.1.15,2013-05-08 08:26:00,
2013-05-08 03:30:00,59.9,45.5,29.97,ESE,118,4.0,7.0,59,0.00,,,0.00,Wunderground v.1.15,2013-05-08 08:30:00,
2013-05-08 03:32:00,59.7,45.8,29.97,ESE,115,4.0,7.0,60,0.00,,,0.00,Wunderground v.1.15,2013-05-08 08:32:00,
2013-05-08 03:36:00,59.6,45.7,29.97,ESE,113,4.0,7.0,60,0.00,,,0.00,Wunderground v.1.15,2013-05-08 08:36:00,
2013-05-08 03:38:00,59.5,45.6,29.97,ESE,111,4.0,7.0,60,0.00,,,0.00,Wunderground v.1.15,2013-05-08 08:38:00,
2013-05-08 03:40:00,59.5,45.6,29.97,ESE,113,4.0,7.0,60,0.00,,,0.00,Wunderground v.1.15,2013-05-08 08:40:00,
2013-05-08 03:44:00,59.3,45.4,29.97,ESE,103,4.0,7.0,60,0.00,,,0.00,Wunderground v.1.15,2013-05-08 08:44:00,
2013-05-08 03:46:00,59.3,45.4,29.97,East,98,4.0,7.0,60,0.00,,,0.00,Wunderground v.1.15,2013-05-08 08:46:00,
2013-05-08 03:48:00,59.1,45.7,29.97,East,89,4.0,7.0,61,0.00,,,0.00,Wunderground v.1.15,2013-05-08 08:48:00,
2013-05-08 03:52:00,59.0,45.6,29.97,East,84,4.0,7.0,61,0.00,,,0.00,Wunderground v.1.15,2013-05-08 08:52:00,
2013-05-08 03:56:00,59.2,45.3,29.97,ENE,70,3.0,7.0,60,0.00,,,0.00,Wunderground v.1.15,2013-05-08 08:56:00,
2013-05-08 04:00:00,59.1,46.1,29.97,ENE,65,4.0,7.0,62,0.00,,,0.00,Wunderground v.1.15,2013-05-08 09:00:00,
2013-05-08 04:02:00,58.6,46.0,29.97,ENE,61,4.0,7.0,63,0.00,,,0.00,Wunderground v.1.15,2013-05-08 09:02:00,
2013-05-08 04:04:00,58.4,45.8,29.97,ENE,71,5.0,7.0,63,0.00,,,0.00,Wunderground v.1.15,2013-05-08 09:04:00,
2013-05-08 04:06:00,58.4,45.8,29.97,ENE,73,5.0,7.0,63,0.00,,,0.00,Wunderground v.1.15,2013-05-08 09:06:00,
2013-05-08 04:08:00,58.3,46.2,29.97,ENE,77,5.0,7.0,64,0.00,,,0.00,Wunderground v.1.15,2013-05-08 09:08:00,
2013-05-08 04:10:00,58.2,46.1,29.97,ENE,77,5.0,7.0,64,0.00,,,0.00,Wunderground v.1.15,2013-05-08 09:10:00,
2013-05-08 04:14:00,57.7,46.4,29.97,ENE,75,5.0,7.0,66,0.00,,,0.00,Wunderground v.1.15,2013-05-08 09:14:00,
2013-05-08 04:16:00,57.6,46.3,29.97,East,79,6.0,7.0,66,0.00,,,0.00,Wunderground v.1.15,2013-05-08 09:16:00,
2013-05-08 04:18:00,57.4,46.1,29.97,East,82,5.0,7.0,66,0.00,,,0.00,Wunderground v.1.15,2013-05-08 09:18:00,
2013-05-08 04:22:00,57.2,46.3,29.97,East,86,6.0,7.0,67,0.00,,,0.00,Wunderground v.1.15,2013-05-08 09:22:00,
2013-05-08 04:24:00,57.0,46.5,29.97,East,82,6.0,7.0,68,0.00,,,0.00,Wunderground v.1.15,2013-05-08 09:24:00,
2013-05-08 04:30:00,56.4,46.7,29.97,East,82,6.0,7.0,70,0.00,,,0.00,Wunderground v.1.15,2013-05-08 09:30:00,
2013-05-08 04:34:00,56.2,46.5,29.97,East,87,6.0,7.0,70,0.00,,,0.00,Wunderground v.1.15,2013-05-08 09:34:00,
2013-05-08 04:36:00,56.0,46.7,29.97,East,85,6.0,7.0,71,0.00,,,0.00,Wunderground v.1.15,2013-05-08 09:36:00,
2013-05-08 04:38:00,55.8,46.9,29.97,East,91,6.0,7.0,72,0.00,,,0.00,Wunderground v.1.15,2013-05-08 09:38:00,
2013-05-08 04:42:00,55.6,46.7,29.97,East,91,6.0,7.0,72,0.00,,,0.00,Wunderground v.1.15,2013-05-08 09:42:00,
2013-05-08 04:44:00,55.5,46.6,29.97,East,91,5.0,7.0,72,0.00,,,0.00,Wunderground v.1.15,2013-05-08 09:44:00,
2013-05-08 04:46:00,55.5,46.6,29.97,East,94,5.0,7.0,72,0.00,,,0.00,Wunderground v.1.15,2013-05-08 09:46:00,
2013-05-08 04:48:00,55.4,46.9,29.97,East,89,5.0,7.0,73,0.00,,,0.00,Wunderground v.1.15,2013-05-08 09:48:00,
2013-05-08 04:54:00,55.3,46.4,29.97,East,88,4.0,7.0,72,0.00,,,0.00,Wunderground v.1.15,2013-05-08 09:54:00,
2013-05-08 04:56:00,55.3,46.4,29.97,East,95,4.0,7.0,72,0.00,,,0.00,Wunderground v.1.15,2013-05-08 09:56:00,
2013-05-08 05:00:00,55.7,46.4,29.97,East,86,5.0,5.0,71,0.00,,,0.00,Wunderground v.1.15,2013-05-08 10:00:00,
2013-05-08 05:02:00,55.7,46.4,29.97,East,94,5.0,7.0,71,0.00,,,0.00,Wunderground v.1.15,2013-05-08 10:02:00,
2013-05-08 05:06:00,55.8,46.5,29.97,East,84,5.0,7.0,71,0.00,,,0.00,Wunderground v.1.15,2013-05-08 10:06:00,
2013-05-08 05:08:00,55.9,46.3,29.97,ENE,73,4.0,7.0,70,0.00,,,0.00,Wunderground v.1.15,2013-05-08 10:08:00,
2013-05-08 05:10:00,56.0,46.4,29.97,ENE,63,4.0,7.0,70,0.00,,,0.00,Wunderground v.1.15,2013-05-08 10:10:00,
2013-05-08 05:12:00,56.1,46.4,29.97,ENE,65,4.0,7.0,70,0.00,,,0.00,Wunderground v.1.15,2013-05-08 10:12:00,
2013-05-08 05:18:00,55.7,46.4,29.98,ENE,63,4.0,7.0,71,0.00,,,0.00,Wunderground v.1.15,2013-05-08 10:18:00,
2013-05-08 05:20:00,55.6,46.3,29.98,NE,44,4.0,4.0,71,0.00,,,0.00,Wunderground v.1.15,2013-05-08 10:20:00,
2013-05-08 05:22:00,55.4,46.5,29.98,NNE,27,3.0,7.0,72,0.00,,,0.00,Wunderground v.1.15,2013-05-08 10:22:00,
2013-05-08 05:26:00,54.2,46.1,29.98,NNE,32,3.0,7.0,74,0.00,,,0.00,Wunderground v.1.15,2013-05-08 10:26:00,
2013-05-08 05:28:00,53.9,46.2,29.98,NNE,31,3.0,7.0,75,0.00,,,0.00,Wunderground v.1.15,2013-05-08 10:28:00,
2013-05-08 05:30:00,53.8,46.1,29.98,NNE,30,3.0,7.0,75,0.00,,,0.00,Wunderground v.1.15,2013-05-08 10:30:00,
2013-05-08 05:32:00,53.9,46.2,29.98,NE,37,3.0,7.0,75,0.00,,,0.00,Wunderground v.1.15,2013-05-08 10:32:00,
2013-05-08 05:36:00,54.0,46.3,29.98,NNE,29,3.0,7.0,75,0.00,,,0.00,Wunderground v.1.15,2013-05-08 10:36:00,
2013-05-08 05:38:00,54.0,46.3,29.98,NE,34,3.0,7.0,75,0.00,,,0.00,Wunderground v.1.15,2013-05-08 10:38:00,
2013-05-08 05:40:00,54.0,46.3,29.98,NE,35,3.0,3.0,75,0.00,,,0.00,Wunderground v.1.15,2013-05-08 10:40:00,
2013-05-08 05:44:00,53.7,46.3,29.98,North,11,2.0,7.0,76,0.00,,,0.00,Wunderground v.1.15,2013-05-08 10:44:00,
2013-05-08 05:46:00,53.3,45.9,29.98,North,9,2.0,7.0,76,0.00,,,0.00,Wunderground v.1.15,2013-05-08 10:46:00,
2013-05-08 05:50:00,52.6,45.9,29.98,North,6,2.0,7.0,78,0.00,,,0.00,Wunderground v.1.15,2013-05-08 10:50:00,
2013-05-08 05:52:00,52.5,45.8,29.98,NNE,15,2.0,7.0,78,0.00,,,0.00,Wunderground v.1.15,2013-05-08 10:52:00,
2013-05-08 05:56:00,52.6,46.3,29.98,NNE,15,3.0,7.0,79,0.00,,,0.00,Wunderground v.1.15,2013-05-08 10:56:00,
2013-05-08 05:58:00,52.5,46.2,29.98,North,360,3.0,7.0,79,0.00,,,0.00,Wunderground v.1.15,2013-05-08 10:58:00,
2013-05-08 06:00:00,52.2,45.9,29.99,NNE,19,3.0,7.0,79,0.00,,,0.00,Wunderground v.1.15,2013-05-08 11:00:00,
2013-05-08 06:04:00,52.1,45.8,29.99,NNE,25,4.0,7.0,79,0.00,,,0.00,Wunderground v.1.15,2013-05-08 11:04:00,
2013-05-08 06:06:00,52.0,46.0,29.99,NNE,26,4.0,7.0,80,0.00,,,0.00,Wunderground v.1.15,2013-05-08 11:06:00,
2013-05-08 06:12:00,52.7,46.4,29.99,NE,43,3.0,7.0,79,0.00,,,0.00,Wunderground v.1.15,2013-05-08 11:12:00,
2013-05-08 06:14:00,53.0,46.7,29.99,ENE,60,3.0,7.0,79,0.00,,,0.00,Wunderground v.1.15,2013-05-08 11:14:00,
2013-05-08 06:18:00,53.7,47.0,29.99,NE,55,2.0,7.0,78,0.00,,,0.00,Wunderground v.1.15,2013-05-08 11:18:00,
2013-05-08 06:20:00,54.0,47.3,29.99,NE,56,2.0,7.0,78,0.00,,,0.00,Wunderground v.1.15,2013-05-08 11:20:00,
2013-05-08 06:22:00,54.3,47.2,29.99,ENE,61,2.0,7.0,77,0.00,,,0.00,Wunderground v.1.15,2013-05-08 11:22:00,
2013-05-08 06:24:00,54.6,47.2,30.00,ENE,61,2.0,7.0,76,0.00,,,0.00,Wunderground v.1.15,2013-05-08 11:24:00,
2013-05-08 06:26:00,54.9,47.1,30.00,ENE,63,2.0,7.0,75,0.00,,,0.00,Wunderground v.1.15,2013-05-08 11:26:00,
2013-05-08 06:28:00,55.2,47.1,30.00,ENE,59,2.0,7.0,74,0.00,,,0.00,Wunderground v.1.15,2013-05-08 11:28:00,
2013-05-08 06:30:00,55.4,47.2,30.00,ENE,58,2.0,7.0,74,0.00,,,0.00,Wunderground v.1.15,2013-05-08 11:30:00,
2013-05-08 06:32:00,55.6,47.8,30.00,ENE,72,3.0,7.0,75,0.00,,,0.00,Wunderground v.1.15,2013-05-08 11:32:00,
2013-05-08 06:34:00,55.5,48.1,30.00,East,79,3.0,7.0,76,0.00,,,0.00,Wunderground v.1.15,2013-05-08 11:34:00,
2013-05-08 06:38:00,55.8,48.0,30.00,East,91,3.0,7.0,75,0.00,,,0.00,Wunderground v.1.15,2013-05-08 11:38:00,
2013-05-08 06:40:00,55.9,47.7,30.00,East,89,3.0,7.0,74,0.00,,,0.00,Wunderground v.1.15,2013-05-08 11:40:00,
2013-05-08 06:42:00,56.1,47.9,30.00,East,87,3.0,7.0,74,0.00,,,0.00,Wunderground v.1.15,2013-05-08 11:42:00,
2013-05-08 06:44:00,56.3,48.1,30.00,East,81,3.0,7.0,74,0.00,,,0.00,Wunderground v.1.15,2013-05-08 11:44:00,
2013-05-08 06:46:00,56.4,47.9,30.00,East,84,3.0,7.0,73,0.00,,,0.00,Wunderground v.1.15,2013-05-08 11:46:00,
2013-05-08 06:52:00,56.9,48.7,30.00,East,84,4.0,7.0,74,0.00,,,0.00,Wunderground v.1.15,2013-05-08 11:52:00,
2013-05-08 06:54:00,57.0,48.4,30.00,East,89,4.0,7.0,73,0.00,,,0.00,Wunderground v.1.15,2013-05-08 11:54:00,
2013-05-08 06:56:00,57.2,48.6,30.00,East,89,4.0,7.0,73,0.00,,,0.00,Wunderground v.1.15,2013-05-08 11:56:00,
2013-05-08 07:00:00,57.5,48.9,30.00,ESE,109,4.0,7.0,73,0.00,,,0.00,Wunderground v.1.15,2013-05-08 12:00:00,
2013-05-08 07:02:00,57.7,48.7,30.00,ESE,105,4.0,7.0,72,0.00,,,0.00,Wunderground v.1.15,2013-05-08 12:02:00,
2013-05-08 07:04:00,57.8,48.5,30.00,ESE,110,4.0,7.0,71,0.00,,,0.00,Wunderground v.1.15,2013-05-08 12:04:00,
2013-05-08 07:08:00,58.2,48.8,30.00,ESE,103,4.0,7.0,71,0.00,,,0.00,Wunderground v.1.15,2013-05-08 12:08:00,
2013-05-08 07:10:00,58.4,48.7,30.00,ESE,105,4.0,7.0,70,0.00,,,0.00,Wunderground v.1.15,2013-05-08 12:10:00,
2013-05-08 07:12:00,58.7,48.9,30.00,ESE,105,4.0,7.0,70,0.00,,,0.00,Wunderground v.1.15,2013-05-08 12:12:00,
2013-05-08 07:16:00,59.0,48.8,30.00,East,96,4.0,7.0,69,0.00,,,0.00,Wunderground v.1.15,2013-05-08 12:16:00,
2013-05-08 07:18:00,59.2,48.6,30.00,East,98,4.0,7.0,68,0.00,,,0.00,Wunderground v.1.15,2013-05-08 12:18:00,
2013-05-08 07:24:00,59.8,49.2,30.00,East,89,4.0,7.0,68,0.00,,,0.00,Wunderground v.1.15,2013-05-08 12:24:00,
2013-05-08 07:26:00,60.0,49.4,30.00,ESE,115,3.0,7.0,68,0.00,,,0.00,Wunderground v.1.15,2013-05-08 12:26:00,
2013-05-08 07:28:00,60.3,50.1,30.00,ESE,120,3.0,7.0,69,0.00,,,0.00,Wunderground v.1.15,2013-05-08 12:28:00,
2013-05-08 07:30:00,60.5,49.5,30.00,SE,127,3.0,7.0,67,0.00,,,0.00,Wunderground v.1.15,2013-05-08 12:30:00,
2013-05-08 07:34:00,61.2,49.3,30.01,East,101,2.0,7.0,65,0.00,,,0.00,Wunderground v.1.15,2013-05-08 12:34:00,
2013-05-08 07:36:00,61.4,48.7,30.01,ESE,106,2.0,7.0,63,0.00,,,0.00,Wunderground v.1.15,2013-05-08 12:36:00,
2013-05-08 07:38:00,61.8,49.9,30.01,ESE,103,2.0,7.0,65,0.00,,,0.00,Wunderground v.1.15,2013-05-08 12:38:00,
2013-05-08 07:42:00,62.4,48.8,30.01,SE,128,2.0,7.0,61,0.00,,,0.00,Wunderground v.1.15,2013-05-08 12:42:00,
2013-05-08 07:44:00,62.7,49.1,30.01,SE,131,2.0,7.0,61,0.00,,,0.00,Wunderground v.1.15,2013-05-08 12:44:00,
2013-05-08 07:48:00,63.3,50.1,30.01,SE,139,2.0,7.0,62,0.00,,,0.00,Wunderground v.1.15,2013-05-08 12:48:00,
2013-05-08 07:52:00,63.7,49.5,30.01,SE,131,2.0,7.0,60,0.00,,,0.00,Wunderground v.1.15,2013-05-08 12:52:00,
2013-05-08 07:54:00,63.8,49.6,30.01,ESE,117,2.0,7.0,60,0.00,,,0.00,Wunderground v.1.15,2013-05-08 12:54:00,
2013-05-08 07:56:00,64.0,49.4,30.01,ESE,122,2.0,7.0,59,0.00,,,0.00,Wunderground v.1.15,2013-05-08 12:56:00,
2013-05-08 08:00:00,64.4,49.3,30.01,ESE,122,3.0,7.0,58,0.00,,,0.00,Wunderground v.1.15,2013-05-08 13:00:00,
2013-05-08 08:02:00,64.6,49.0,30.01,SE,129,3.0,7.0,57,0.00,,,0.00,Wunderground v.1.15,2013-05-08 13:02:00,
2013-05-08 08:06:00,64.9,48.3,30.01,SE,131,4.0,7.0,55,0.00,,,0.00,Wunderground v.1.15,2013-05-08 13:06:00,
2013-05-08 08:08:00,65.0,48.4,30.01,SE,131,4.0,7.0,55,0.00,,,0.00,Wunderground v.1.15,2013-05-08 13:08:00,
2013-05-08 08:10:00,65.2,47.6,30.00,SE,127,4.0,7.0,53,0.00,,,0.00,Wunderground v.1.15,2013-05-08 13:10:00,
2013-05-08 08:12:00,65.3,48.2,30.00,ESE,117,5.0,7.0,54,0.00,,,0.00,Wunderground v.1.15,2013-05-08 13:12:00,
2013-05-08 08:14:00,65.4,48.3,30.01,ESE,108,5.0,7.0,54,0.00,,,0.00,Wunderground v.1.15,2013-05-08 13:14:00,
2013-05-08 08:16:00,65.8,47.7,30.00,SE,131,4.0,7.0,52,0.00,,,0.00,Wunderground v.1.15,2013-05-08 13:16:00,
2013-05-08 08:18:00,66.0,47.3,30.00,ESE,107,5.0,7.0,51,0.00,,,0.00,Wunderground v.1.15,2013-05-08 13:18:00,
2013-05-08 08:20:00,66.2,49.1,30.00,SE,128,5.0,5.0,54,0.00,,,0.00,Wunderground v.1.15,2013-05-08 13:20:00,
2013-05-08 08:22:00,66.5,48.3,30.00,SE,124,4.0,7.0,52,0.00,,,0.00,Wunderground v.1.15,2013-05-08 13:22:00,
2013-05-08 08:28:00,67.4,48.6,30.00,ESE,112,4.0,7.0,51,0.00,,,0.00,Wunderground v.1.15,2013-05-08 13:28:00,
2013-05-08 08:30:00,67.6,49.9,30.01,East,87,3.0,3.0,53,0.00,,,0.00,Wunderground v.1.15,2013-05-08 13:30:00,
2013-05-08 08:34:00,68.5,48.6,30.01,ESE,117,3.0,7.0,49,0.00,,,0.00,Wunderground v.1.15,2013-05-08 13:34:00,
2013-05-08 08:40:00,68.9,50.0,30.01,SSE,158,3.0,3.0,51,0.00,,,0.00,Wunderground v.1.15,2013-05-08 13:40:00,
2013-05-08 08:42:00,69.1,49.1,30.00,ESE,113,3.0,4.0,49,0.00,,,0.00,Wunderground v.1.15,2013-05-08 13:42:00,
2013-05-08 08:48:00,69.3,50.4,30.00,SSE,157,4.0,7.0,51,0.00,,,0.00,Wunderground v.1.15,2013-05-08 13:48:00,
2013-05-08 08:50:00,69.4,49.4,30.00,ENE,78,4.0,7.0,49,0.00,,,0.00,Wunderground v.1.15,2013-05-08 13:50:00,
2013-05-08 08:56:00,70.0,50.0,30.01,SSE,155,4.0,7.0,49,0.00,,,0.00,Wunderground v.1.15,2013-05-08 13:56:00,
2013-05-08 08:58:00,70.4,50.3,30.01,ESE,105,3.0,7.0,49,0.00,,,0.00,Wunderground v.1.15,2013-05-08 13:58:00,
2013-05-08 09:02:00,71.0,51.4,30.01,East,88,2.0,7.0,50,0.00,,,0.00,Wunderground v.1.15,2013-05-08 14:02:00,
2013-05-08 09:04:00,71.3,51.1,30.00,ESE,117,2.0,7.0,49,0.00,,,0.00,Wunderground v.1.15,2013-05-08 14:04:00,
2013-05-08 09:06:00,71.5,51.3,30.00,ESE,115,2.0,7.0,49,0.00,,,0.00,Wunderground v.1.15,2013-05-08 14:06:00,
2013-05-08 09:10:00,71.1,49.8,30.00,ESE,117,3.0,7.0,47,0.00,,,0.00,Wunderground v.1.15,2013-05-08 14:10:00,
2013-05-08 09:12:00,71.1,51.0,30.00,SSE,147,4.0,7.0,49,0.00,,,0.00,Wunderground v.1.15,2013-05-08 14:12:00,
2013-05-08 09:14:00,71.1,50.4,30.00,South,174,5.0,7.0,48,0.00,,,0.00,Wunderground v.1.15,2013-05-08 14:14:00,
2013-05-08 09:16:00,71.4,51.2,30.00,South,170,5.0,7.0,49,0.00,,,0.00,Wunderground v.1.15,2013-05-08 14:16:00,
2013-05-08 09:22:00,72.1,50.8,30.00,South,172,4.0,7.0,47,0.00,,,0.00,Wunderground v.1.15,2013-05-08 14:22:00,
2013-05-08 09:24:00,72.3,50.4,30.00,SSE,163,4.0,7.0,46,0.00,,,0.00,Wunderground v.1.15,2013-05-08 14:24:00,
2013-05-08 09:26:00,72.6,50.0,30.00,South,174,4.0,7.0,45,0.00,,,0.00,Wunderground v.1.15,2013-05-08 14:26:00,
2013-05-08 09:30:00,73.1,51.1,30.00,SSE,165,4.0,7.0,46,0.00,,,0.00,Wunderground v.1.15,2013-05-08 14:30:00,
2013-05-08 09:34:00,73.4,50.2,30.00,SE,125,4.0,7.0,44,0.00,,,0.00,Wunderground v.1.15,2013-05-08 14:34:00,
2013-05-08 09:36:00,73.2,51.8,30.00,SSE,167,4.0,7.0,47,0.00,,,0.00,Wunderground v.1.15,2013-05-08 14:36:00,
2013-05-08 09:40:00,73.5,50.9,30.00,South,190,4.0,4.0,45,0.00,,,0.00,Wunderground v.1.15,2013-05-08 14:40:00,
2013-05-08 09:44:00,73.9,50.0,30.00,WSW,248,3.0,7.0,43,0.00,,,0.00,Wunderground v.1.15,2013-05-08 14:44:00,
2013-05-08 09:46:00,74.1,51.4,30.00,SE,143,3.0,7.0,45,0.00,,,0.00,Wunderground v.1.15,2013-05-08 14:46:00,
2013-05-08 09:52:00,74.0,50.7,30.00,SSE,153,2.0,7.0,44,0.00,,,0.00,Wunderground v.1.15,2013-05-08 14:52:00,
2013-05-08 09:54:00,74.3,51.0,30.00,SSE,147,2.0,7.0,44,0.00,,,0.00,Wunderground v.1.15,2013-05-08 14:54:00,
2013-05-08 09:56:00,74.6,51.9,30.00,SE,146,2.0,7.0,45,0.00,,,0.00,Wunderground v.1.15,2013-05-08 14:56:00,
2013-05-08 10:02:00,75.3,50.6,30.00,ESE,120,2.0,7.0,42,0.00,,,0.00,Wunderground v.1.15,2013-05-08 15:02:00,
2013-05-08 10:04:00,75.5,50.8,30.00,SE,135,2.0,7.0,42,0.00,,,0.00,Wunderground v.1.15,2013-05-08 15:04:00,
2013-05-08 10:06:00,75.6,50.2,30.00,SE,129,2.0,7.0,41,0.00,,,0.00,Wunderground v.1.15,2013-05-08 15:06:00,
2013-05-08 10:08:00,75.4,50.1,30.00,SE,126,3.0,7.0,41,0.00,,,0.00,Wunderground v.1.15,2013-05-08 15:08:00,
2013-05-08 10:10:00,75.0,49.7,30.00,ESE,115,3.0,3.0,41,0.00,,,0.00,Wunderground v.1.15,2013-05-08 15:10:00,
2013-05-08 10:14:00,75.0,51.0,30.00,SE,134,3.0,7.0,43,0.00,,,0.00,Wunderground v.1.15,2013-05-08 15:14:00,
2013-05-08 10:16:00,75.2,48.5,30.00,WSW,249,3.0,7.0,39,0.00,,,0.00,Wunderground v.1.15,2013-05-08 15:16:00,
2013-05-08 10:18:00,75.3,49.3,30.00,SSW,210,2.0,7.0,40,0.00,,,0.00,Wunderground v.1.15,2013-05-08 15:18:00,
2013-05-08 10:24:00,76.4,48.9,30.00,SSW,198,1.0,7.0,38,0.00,,,0.00,Wunderground v.1.15,2013-05-08 15:24:00,
2013-05-08 10:26:00,76.3,48.8,30.00,South,186,2.0,7.0,38,0.00,,,0.00,Wunderground v.1.15,2013-05-08 15:26:00,
2013-05-08 10:30:00,76.3,49.5,30.00,South,190,2.0,7.0,39,0.00,,,0.00,Wunderground v.1.15,2013-05-08 15:30:00,
2013-05-08 10:32:00,76.4,48.9,30.00,SSW,210,2.0,7.0,38,0.00,,,0.00,Wunderground v.1.15,2013-05-08 15:32:00,
2013-05-08 10:36:00,76.7,49.2,30.00,SW,221,2.0,7.0,38,0.00,,,0.00,Wunderground v.1.15,2013-05-08 15:36:00,
2013-05-08 10:38:00,76.8,48.6,30.00,West,275,2.0,7.0,37,0.00,,,0.00,Wunderground v.1.15,2013-05-08 15:38:00,
2013-05-08 10:40:00,76.7,48.5,30.00,SSW,210,2.0,2.0,37,0.00,,,0.00,Wunderground v.1.15,2013-05-08 15:40:00,
2013-05-08 10:46:00,77.7,51.5,30.00,WNW,290,1.0,7.0,40,0.00,,,0.00,Wunderground v.1.15,2013-05-08 15:46:00,
2013-05-08 10:48:00,77.9,50.2,30.00,West,262,1.0,7.0,38,0.00,,,0.00,Wunderground v.1.15,2013-05-08 15:48:00,
2013-05-08 10:50:00,77.5,49.9,30.00,SW,225,2.0,7.0,38,0.00,,,0.00,Wunderground v.1.15,2013-05-08 15:50:00,
2013-05-08 10:54:00,77.0,48.7,30.00,SW,233,2.0,7.0,37,0.00,,,0.00,Wunderground v.1.15,2013-05-08 15:54:00,
2013-05-08 10:58:00,77.7,47.1,30.00,SSW,197,2.0,7.0,34,0.00,,,0.00,Wunderground v.1.15,2013-05-08 15:58:00,
2013-05-08 11:00:00,77.9,48.0,30.00,South,170,2.0,2.0,35,0.00,,,0.00,Wunderground v.1.15,2013-05-08 16:00:00,
2013-05-08 11:02:00,78.1,49.0,30.00,East,98,1.0,7.0,36,0.00,,,0.00,Wunderground v.1.15,2013-05-08 16:02:00,
2013-05-08 11:04:00,78.1,49.7,30.00,SSW,210,1.0,7.0,37,0.00,,,0.00,Wunderground v.1.15,2013-05-08 16:04:00,
2013-05-08 11:08:00,78.3,48.4,30.00,SW,214,2.0,7.0,35,0.00,,,0.00,Wunderground v.1.15,2013-05-08 16:08:00,
2013-05-08 11:10:00,78.1,48.2,30.00,SSW,207,2.0,7.0,35,0.00,,,0.00,Wunderground v.1.15,2013-05-08 16:10:00,
2013-05-08 11:16:00,78.4,47.7,30.00,SW,233,3.0,7.0,34,0.00,,,0.00,Wunderground v.1.15,2013-05-08 16:16:00,
2013-05-08 11:18:00,78.4,47.7,30.00,SW,228,3.0,7.0,34,0.00,,,0.00,Wunderground v.1.15,2013-05-08 16:18:00,
2013-05-08 11:20:00,78.3,46.8,30.00,SSW,210,3.0,7.0,33,0.00,,,0.00,Wunderground v.1.15,2013-05-08 16:20:00,
2013-05-08 11:26:00,78.0,46.6,30.00,ESE,121,3.0,7.0,33,0.00,,,0.00,Wunderground v.1.15,2013-05-08 16:26:00,
2013-05-08 11:30:00,77.6,46.2,29.99,East,82,4.0,7.0,33,0.00,,,0.00,Wunderground v.1.15,2013-05-08 16:30:00,
2013-05-08 11:32:00,77.5,46.9,30.00,ENE,60,4.0,7.0,34,0.00,,,0.00,Wunderground v.1.15,2013-05-08 16:32:00,
2013-05-08 11:36:00,77.7,49.3,30.00,SW,229,4.0,7.0,37,0.00,,,0.00,Wunderground v.1.15,2013-05-08 16:36:00,
2013-05-08 11:42:00,78.0,44.9,29.99,SSW,213,4.0,7.0,31,0.00,,,0.00,Wunderground v.1.15,2013-05-08 16:42:00,
2013-05-08 11:44:00,78.1,46.6,29.99,WSW,256,3.0,7.0,33,0.00,,,0.00,Wunderground v.1.15,2013-05-08 16:44:00,
2013-05-08 11:48:00,78.2,43.3,29.99,ENE,57,3.0,7.0,29,0.00,,,0.00,Wunderground v.1.15,2013-05-08 16:48:00,
2013-05-08 11:50:00,78.3,45.2,29.99,SE,124,3.0,7.0,31,0.00,,,0.00,Wunderground v.1.15,2013-05-08 16:50:00,
2013-05-08 11:52:00,78.3,43.4,29.99,SE,126,3.0,7.0,29,0.00,,,0.00,Wunderground v.1.15,2013-05-08 16:52:00,
2013-05-08 11:56:00,78.3,45.2,29.99,East,96,4.0,7.0,31,0.00,,,0.00,Wunderground v.1.15,2013-05-08 16:56:00,
2013-05-08 12:00:00,78.6,47.9,29.98,SSW,200,4.0,4.0,34,0.00,,,0.00,Wunderground v.1.15,2013-05-08 17:00:00,
2013-05-08 12:02:00,79.0,49.8,29.98,SW,219,3.0,7.0,36,0.00,,,0.00,Wunderground v.1.15,2013-05-08 17:02:00,
2013-05-08 12:06:00,79.0,44.9,29.98,WNW,294,3.0,7.0,30,0.00,,,0.00,Wunderground v.1.15,2013-05-08 17:06:00,
2013-05-08 12:08:00,78.9,44.8,29.98,SW,214,3.0,7.0,30,0.00,,,0.00,Wunderground v.1.15,2013-05-08 17:08:00,
2013-05-08 12:12:00,79.3,45.2,29.98,NE,37,2.0,4.0,30,0.00,,,0.00,Wunderground v.1.15,2013-05-08 17:12:00,
2013-05-08 12:14:00,79.5,47.9,29.98,NE,49,2.0,7.0,33,0.00,,,0.00,Wunderground v.1.15,2013-05-08 17:14:00,
2013-05-08 12:16:00,79.6,45.4,29.98,ESE,107,3.0,7.0,30,0.00,,,0.00,Wunderground v.1.15,2013-05-08 17:16:00,
2013-05-08 12:22:00,79.4,42.5,29.98,East,81,4.0,5.0,27,0.00,,,0.00,Wunderground v.1.15,2013-05-08 17:22:00,
2013-05-08 12:24:00,79.5,43.5,29.98,ENE,74,5.0,7.0,28,0.00,,,0.00,Wunderground v.1.15,2013-05-08 17:24:00,
2013-05-08 12:26:00,79.7,42.8,29.98,SE,136,4.0,7.0,27,0.00,,,0.00,Wunderground v.1.15,2013-05-08 17:26:00,
2013-05-08 12:30:00,80.3,43.3,29.98,South,177,3.0,7.0,27,0.00,,,0.00,Wunderground v.1.15,2013-05-08 17:30:00,
2013-05-08 12:34:00,80.9,45.7,29.97,East,100,3.0,7.0,29,0.00,,,0.00,Wunderground v.1.15,2013-05-08 17:34:00,
2013-05-08 12:38:00,80.8,42.7,29.97,SW,215,4.0,7.0,26,0.00,,,0.00,Wunderground v.1.15,2013-05-08 17:38:00,
2013-05-08 12:40:00,81.0,42.9,29.97,SE,140,4.0,4.0,26,0.00,,,0.00,Wunderground v.1.15,2013-05-08 17:40:00,
2013-05-08 12:42:00,81.0,42.9,29.97,SE,129,4.0,7.0,26,0.00,,,0.00,Wunderground v.1.15,2013-05-08 17:42:00,
2013-05-08 12:44:00,81.0,41.9,29.97,SSE,149,3.0,7.0,25,0.00,,,0.00,Wunderground v.1.15,2013-05-08 17:44:00,
2013-05-08 12:46:00,80.9,42.8,29.97,SSE,165,3.0,7.0,26,0.00,,,0.00,Wunderground v.1.15,2013-05-08 17:46:00,
2013-05-08 12:50:00,80.5,43.4,29.97,SSW,200,4.0,7.0,27,0.00,,,0.00,Wunderground v.1.15,2013-05-08 17:50:00,
2013-05-08 12:54:00,80.2,41.2,29.97,SW,222,4.0,7.0,25,0.00,,,0.00,Wunderground v.1.15,2013-05-08 17:54:00,
2013-05-08 12:56:00,80.3,46.0,29.97,ENE,60,3.0,7.0,30,0.00,,,0.00,Wunderground v.1.15,2013-05-08 17:56:00,
2013-05-08 12:58:00,80.8,45.6,29.97,NW,323,2.0,7.0,29,0.00,,,0.00,Wunderground v.1.15,2013-05-08 17:58:00,
2013-05-08 13:02:00,81.1,43.0,29.97,WSW,243,2.0,7.0,26,0.00,,,0.00,Wunderground v.1.15,2013-05-08 18:02:00,
2013-05-08 13:04:00,80.9,42.8,29.97,West,274,2.0,7.0,26,0.00,,,0.00,Wunderground v.1.15,2013-05-08 18:04:00,
2013-05-08 13:06:00,80.8,42.7,29.97,SSW,210,2.0,7.0,26,0.00,,,0.00,Wunderground v.1.15,2013-05-08 18:06:00,
2013-05-08 13:08:00,80.7,44.6,29.97,NW,305,3.0,7.0,28,0.00,,,0.00,Wunderground v.1.15,2013-05-08 18:08:00,
2013-05-08 13:12:00,80.2,44.1,29.97,NNW,333,3.0,7.0,28,0.00,,,0.00,Wunderground v.1.15,2013-05-08 18:12:00,
2013-05-08 13:14:00,79.7,41.8,29.97,NNW,347,4.0,7.0,26,0.00,,,0.00,Wunderground v.1.15,2013-05-08 18:14:00,
2013-05-08 13:16:00,79.3,44.3,29.97,North,351,4.0,7.0,29,0.00,,,0.00,Wunderground v.1.15,2013-05-08 18:16:00,
2013-05-08 13:20:00,78.9,45.7,29.97,North,358,4.0,7.0,31,0.00,,,0.00,Wunderground v.1.15,2013-05-08 18:20:00,
2013-05-08 13:22:00,79.0,44.0,29.96,NW,326,5.0,7.0,29,0.00,,,0.00,Wunderground v.1.15,2013-05-08 18:22:00,
2013-05-08 13:24:00,79.2,42.3,29.97,NNW,333,5.0,7.0,27,0.00,,,0.00,Wunderground v.1.15,2013-05-08 18:24:00,
2013-05-08 13:26:00,79.3,43.4,29.96,NNE,12,5.0,7.0,28,0.00,,,0.00,Wunderground v.1.15,2013-05-08 18:26:00,
2013-05-08 13:30:00,79.7,44.6,29.96,NW,318,5.0,9.0,29,0.00,,,0.00,Wunderground v.1.15,2013-05-08 18:30:00,
2013-05-08 13:32:00,79.6,42.7,29.96,West,276,5.0,9.0,27,0.00,,,0.00,Wunderground v.1.15,2013-05-08 18:32:00,
2013-05-08 13:34:00,79.3,44.3,29.96,NNW,331,5.0,9.0,29,0.00,,,0.00,Wunderground v.1.15,2013-05-08 18:34:00,
2013-05-08 13:36:00,79.1,43.2,29.96,NNW,339,5.0,9.0,28,0.00,,,0.00,Wunderground v.1.15,2013-05-08 18:36:00,
2013-05-08 13:42:00,78.9,43.9,29.96,WNW,288,4.0,7.0,29,0.00,,,0.00,Wunderground v.1.15,2013-05-08 18:42:00,
2013-05-08 13:44:00,79.2,44.2,29.96,NW,304,4.0,7.0,29,0.00,,,0.00,Wunderground v.1.15,2013-05-08 18:44:00,
2013-05-08 13:46:00,79.4,42.5,29.96,WNW,300,4.0,7.0,27,0.00,,,0.00,Wunderground v.1.15,2013-05-08 18:46:00,
2013-05-08 13:48:00,79.4,46.1,29.96,NW,326,5.0,7.0,31,0.00,,,0.00,Wunderground v.1.15,2013-05-08 18:48:00,
2013-05-08 13:50:00,79.4,43.4,29.96,NNW,328,5.0,5.0,28,0.00,,,0.00,Wunderground v.1.15,2013-05-08 18:50:00,
2013-05-08 13:54:00,79.3,42.4,29.96,SSW,193,3.0,7.0,27,0.00,,,0.00,Wunderground v.1.15,2013-05-08 18:54:00,
2013-05-08 13:58:00,79.4,41.5,29.96,NW,316,2.0,7.0,26,0.00,,,0.00,Wunderground v.1.15,2013-05-08 18:58:00,
2013-05-08 14:02:00,79.2,42.3,29.96,WSW,257,2.0,7.0,27,0.00,,,0.00,Wunderground v.1.15,2013-05-08 19:02:00,
2013-05-08 14:06:00,78.8,42.0,29.96,SSW,213,3.0,7.0,27,0.00,,,0.00,Wunderground v.1.15,2013-05-08 19:06:00,
2013-05-08 14:08:00,78.7,42.8,29.96,SW,218,4.0,7.0,28,0.00,,,0.00,Wunderground v.1.15,2013-05-08 19:08:00,
2013-05-08 14:12:00,78.9,43.0,29.96,SSE,160,4.0,7.0,28,0.00,,,0.00,Wunderground v.1.15,2013-05-08 19:12:00,
2013-05-08 14:14:00,79.1,43.2,29.96,WSW,252,3.0,7.0,28,0.00,,,0.00,Wunderground v.1.15,2013-05-08 19:14:00,
2013-05-08 14:16:00,79.1,42.2,29.96,WSW,253,3.0,7.0,27,0.00,,,0.00,Wunderground v.1.15,2013-05-08 19:16:00,
2013-05-08 14:18:00,79.2,44.2,29.96,WSW,255,2.0,7.0,29,0.00,,,0.00,Wunderground v.1.15,2013-05-08 19:18:00,
2013-05-08 14:22:00,79.5,43.5,29.96,NW,316,2.0,7.0,28,0.00,,,0.00,Wunderground v.1.15,2013-05-08 19:22:00,
2013-05-08 14:24:00,79.5,42.6,29.95,WNW,301,2.0,7.0,27,0.00,,,0.00,Wunderground v.1.15,2013-05-08 19:24:00,
2013-05-08 14:26:00,79.4,44.4,29.95,NNW,330,2.0,7.0,29,0.00,,,0.00,Wunderground v.1.15,2013-05-08 19:26:00,
2013-05-08 14:32:00,80.0,42.0,29.95,NNW,330,1.0,7.0,26,0.00,,,0.00,Wunderground v.1.15,2013-05-08 19:32:00,
2013-05-08 14:34:00,79.9,41.9,29.95,WSW,239,1.0,7.0,26,0.00,,,0.00,Wunderground v.1.15,2013-05-08 19:34:00,
2013-05-08 14:38:00,79.8,43.8,29.95,SW,229,1.0,7.0,28,0.00,,,0.00,Wunderground v.1.15,2013-05-08 19:38:00,
2013-05-08 14:40:00,79.9,43.9,29.95,SSW,212,1.0,7.0,28,0.00,,,0.00,Wunderground v.1.15,2013-05-08 19:40:00,
2013-05-08 14:42:00,80.1,42.1,29.95,SSW,194,1.0,7.0,26,0.00,,,0.00,Wunderground v.1.15,2013-05-08 19:42:00,
2013-05-08 14:46:00,80.5,42.4,29.95,SSW,212,2.0,7.0,26,0.00,,,0.00,Wunderground v.1.15,2013-05-08 19:46:00,
2013-05-08 14:48:00,80.4,42.4,29.95,SW,236,3.0,7.0,26,0.00,,,0.00,Wunderground v.1.15,2013-05-08 19:48:00,
2013-05-08 14:50:00,80.5,42.4,29.95,SSW,193,3.0,3.0,26,0.00,,,0.00,Wunderground v.1.15,2013-05-08 19:50:00,
2013-05-08 14:54:00,81.2,45.9,29.95,NNW,334,2.0,7.0,29,0.00,,,0.00,Wunderground v.1.15,2013-05-08 19:54:00,
2013-05-08 14:56:00,81.1,43.0,29.95,NNW,339,2.0,7.0,26,0.00,,,0.00,Wunderground v.1.15,2013-05-08 19:56:00,
2013-05-08 14:58:00,81.0,42.9,29.94,NNW,339,1.0,7.0,26,0.00,,,0.00,Wunderground v.1.15,2013-05-08 19:58:00,
2013-05-08 15:00:00,80.7,41.6,29.95,NNW,338,2.0,2.0,25,0.00,,,0.00,Wunderground v.1.15,2013-05-08 20:00:00,
2013-05-08 15:04:00,80.3,43.3,29.95,NNW,339,2.0,7.0,27,0.00,,,0.00,Wunderground v.1.15,2013-05-08 20:04:00,
2013-05-08 15:06:00,80.1,43.1,29.94,NW,304,2.0,7.0,27,0.00,,,0.00,Wunderground v.1.15,2013-05-08 20:06:00,
2013-05-08 15:10:00,79.9,41.9,29.94,NW,322,3.0,8.0,26,0.00,,,0.00,Wunderground v.1.15,2013-05-08 20:10:00,
2013-05-08 15:12:00,79.9,43.9,29.94,North,356,4.0,8.0,28,0.00,,,0.00,Wunderground v.1.15,2013-05-08 20:12:00,
2013-05-08 15:14:00,80.0,42.0,29.94,NNW,329,4.0,8.0,26,0.00,,,0.00,Wunderground v.1.15,2013-05-08 20:14:00,
2013-05-08 15:16:00,80.2,45.1,29.94,NNE,32,4.0,8.0,29,0.00,,,0.00,Wunderground v.1.15,2013-05-08 20:16:00,
2013-05-08 15:20:00,80.3,42.3,29.94,ESE,105,4.0,7.0,26,0.00,,,0.00,Wunderground v.1.15,2013-05-08 20:20:00,
2013-05-08 15:22:00,80.2,42.2,29.94,East,91,4.0,7.0,26,0.00,,,0.00,Wunderground v.1.15,2013-05-08 20:22:00,
2013-05-08 15:24:00,80.2,43.2,29.94,SE,143,4.0,7.0,27,0.00,,,0.00,Wunderground v.1.15,2013-05-08 20:24:00,
2013-05-08 15:28:00,80.1,41.1,29.94,East,86,4.0,7.0,25,0.00,,,0.00,Wunderground v.1.15,2013-05-08 20:28:00,
2013-05-08 15:30:00,79.9,42.9,29.93,ESE,120,4.0,7.0,27,0.00,,,0.00,Wunderground v.1.15,2013-05-08 20:30:00,
2013-05-08 15:34:00,79.7,41.8,29.93,ESE,113,5.0,7.0,26,0.00,,,0.00,Wunderground v.1.15,2013-05-08 20:34:00,
2013-05-08 15:36:00,79.7,41.8,29.93,ESE,121,5.0,7.0,26,0.00,,,0.00,Wunderground v.1.15,2013-05-08 20:36:00,
2013-05-08 15:38:00,79.7,41.8,29.94,SE,132,5.0,7.0,26,0.00,,,0.00,Wunderground v.1.15,2013-05-08 20:38:00,
2013-05-08 15:40:00,79.8,41.9,29.94,SE,142,4.0,4.0,26,0.00,,,0.00,Wunderground v.1.15,2013-05-08 20:40:00,
2013-05-08 15:44:00,80.3,43.3,29.93,WNW,297,3.0,7.0,27,0.00,,,0.00,Wunderground v.1.15,2013-05-08 20:44:00,
2013-05-08 15:46:00,80.1,40.0,29.93,WNW,294,3.0,7.0,24,0.00,,,0.00,Wunderground v.1.15,2013-05-08 20:46:00,
2013-05-08 15:48:00,80.0,42.0,29.93,NNW,330,2.0,7.0,26,0.00,,,0.00,Wunderground v.1.15,2013-05-08 20:48:00,
2013-05-08 15:50:00,79.9,40.9,29.93,NW,326,3.0,3.0,25,0.00,,,0.00,Wunderground v.1.15,2013-05-08 20:50:00,
2013-05-08 15:52:00,79.8,43.8,29.93,NW,311,3.0,7.0,28,0.00,,,0.00,Wunderground v.1.15,2013-05-08 20:52:00,
2013-05-08 15:54:00,79.8,44.7,29.93,NNW,344,2.0,7.0,29,0.00,,,0.00,Wunderground v.1.15,2013-05-08 20:54:00,
2013-05-08 15:56:00,79.7,42.8,29.93,WNW,290,2.0,7.0,27,0.00,,,0.00,Wunderground v.1.15,2013-05-08 20:56:00,
2013-05-08 15:58:00,79.7,41.8,29.93,West,267,4.0,8.0,26,0.00,,,0.00,Wunderground v.1.15,2013-05-08 20:58:00,
2013-05-08 16:00:00,79.5,42.6,29.93,NNW,330,4.0,4.0,27,0.00,,,0.00,Wunderground v.1.15,2013-05-08 21:00:00,
2013-05-08 16:04:00,79.4,44.4,29.93,West,274,5.0,7.0,29,0.00,,,0.00,Wunderground v.1.15,2013-05-08 21:04:00,
2013-05-08 16:06:00,79.5,42.6,29.93,SW,218,4.0,7.0,27,0.00,,,0.00,Wunderground v.1.15,2013-05-08 21:06:00,
2013-05-08 16:10:00,79.6,42.7,29.93,WSW,249,4.0,4.0,27,0.00,,,0.00,Wunderground v.1.15,2013-05-08 21:10:00,
2013-05-08 16:12:00,79.7,42.8,29.93,SW,236,3.0,7.0,27,0.00,,,0.00,Wunderground v.1.15,2013-05-08 21:12:00,
2013-05-08 16:18:00,79.7,42.8,29.93,SW,222,3.0,7.0,27,0.00,,,0.00,Wunderground v.1.15,2013-05-08 21:18:00,
2013-05-08 16:20:00,79.7,44.6,29.93,WNW,297,3.0,7.0,29,0.00,,,0.00,Wunderground v.1.15,2013-05-08 21:20:00,
2013-05-08 16:22:00,79.7,44.6,29.93,WNW,294,3.0,7.0,29,0.00,,,0.00,Wunderground v.1.15,2013-05-08 21:22:00,
2013-05-08 16:24:00,79.6,42.7,29.93,WNW,287,4.0,7.0,27,0.00,,,0.00,Wunderground v.1.15,2013-05-08 21:24:00,
2013-05-08 16:26:00,79.5,44.5,29.93,NW,307,4.0,7.0,29,0.00,,,0.00,Wunderground v.1.15,2013-05-08 21:26:00,
2013-05-08 16:30:00,79.4,42.5,29.93,WNW,301,4.0,7.0,27,0.00,,,0.00,Wunderground v.1.15,2013-05-08 21:30:00,
2013-05-08 16:32:00,79.5,43.5,29.93,WNW,293,4.0,7.0,28,0.00,,,0.00,Wunderground v.1.15,2013-05-08 21:32:00,
2013-05-08 16:34:00,79.5,45.3,29.93,WNW,300,3.0,7.0,30,0.00,,,0.00,Wunderground v.1.15,2013-05-08 21:34:00,
2013-05-08 16:36:00,79.5,42.6,29.93,WNW,293,3.0,7.0,27,0.00,,,0.00,Wunderground v.1.15,2013-05-08 21:36:00,
2013-05-08 16:38:00,79.6,41.7,29.92,WNW,293,3.0,7.0,26,0.00,,,0.00,Wunderground v.1.15,2013-05-08 21:38:00,
2013-05-08 16:42:00,79.9,41.9,29.92,WNW,297,2.0,7.0,26,0.00,,,0.00,Wunderground v.1.15,2013-05-08 21:42:00,
2013-05-08 16:44:00,80.0,42.0,29.92,WNW,297,2.0,7.0,26,0.00,,,0.00,Wunderground v.1.15,2013-05-08 21:44:00,
2013-05-08 16:46:00,80.3,43.3,29.93,WNW,297,1.0,7.0,27,0.00,,,0.00,Wunderground v.1.15,2013-05-08 21:46:00,
2013-05-08 16:48:00,80.6,42.5,29.92,NNW,344,0.0,7.0,26,0.00,,,0.00,Wunderground v.1.15,2013-05-08 21:48:00,
2013-05-08 16:50:00,80.7,43.6,29.92,NNW,344,0.0,7.0,27,0.00,,,0.00,Wunderground v.1.15,2013-05-08 21:50:00,
2013-05-08 16:54:00,81.1,41.9,29.92,WSW,256,1.0,7.0,25,0.00,,,0.00,Wunderground v.1.15,2013-05-08 21:54:00,
2013-05-08 16:56:00,81.0,42.9,29.92,West,278,1.0,7.0,26,0.00,,,0.00,Wunderground v.1.15,2013-05-08 21:56:00,
2013-05-08 16:58:00,81.0,41.9,29.92,West,266,1.0,7.0,25,0.00,,,0.00,Wunderground v.1.15,2013-05-08 21:58:00,
2013-05-08 17:00:00,81.0,41.9,29.92,SE,136,1.0,1.0,25,0.00,,,0.00,Wunderground v.1.15,2013-05-08 22:00:00,
2013-05-08 17:04:00,81.4,43.2,29.92,West,276,1.0,7.0,26,0.00,,,0.00,Wunderground v.1.15,2013-05-08 22:04:00,
2013-05-08 17:06:00,81.2,44.0,29.92,NW,310,1.0,7.0,27,0.00,,,0.00,Wunderground v.1.15,2013-05-08 22:06:00,
2013-05-08 17:08:00,80.9,45.7,29.92,NW,312,2.0,7.0,29,0.00,,,0.00,Wunderground v.1.15,2013-05-08 22:08:00,
2013-05-08 17:10:00,80.7,44.6,29.92,NNW,329,2.0,7.0,28,0.00,,,0.00,Wunderground v.1.15,2013-05-08 22:10:00,
2013-05-08 17:14:00,80.5,43.4,29.92,NW,304,3.0,7.0,27,0.00,,,0.00,Wunderground v.1.15,2013-05-08 22:14:00,
2013-05-08 17:16:00,80.4,42.4,29.92,NW,311,4.0,7.0,26,0.00,,,0.00,Wunderground v.1.15,2013-05-08 22:16:00,
2013-05-08 17:20:00,80.2,44.1,29.92,WNW,298,3.0,3.0,28,0.00,,,0.00,Wunderground v.1.15,2013-05-08 22:20:00,
2013-05-08 17:22:00,80.1,43.1,29.92,NW,323,4.0,4.0,27,0.00,,,0.00,Wunderground v.1.15,2013-05-08 22:22:00,
2013-05-08 17:28:00,79.8,44.7,29.92,NW,319,4.0,7.0,29,0.00,,,0.00,Wunderground v.1.15,2013-05-08 22:28:00,
2013-05-08 17:30:00,79.8,44.7,29.92,NNW,327,5.0,7.0,29,0.00,,,0.00,Wunderground v.1.15,2013-05-08 22:30:00,
2013-05-08 17:32:00,79.7,43.7,29.92,WNW,302,5.0,7.0,28,0.00,,,0.00,Wunderground v.1.15,2013-05-08 22:32:00,
2013-05-08 17:34:00,79.7,43.7,29.92,NW,321,6.0,7.0,28,0.00,,,0.00,Wunderground v.1.15,2013-05-08 22:34:00,
2013-05-08 17:36:00,79.6,43.6,29.92,NW,315,6.0,7.0,28,0.00,,,0.00,Wunderground v.1.15,2013-05-08 22:36:00,
2013-05-08 17:38:00,79.6,44.5,29.92,NW,315,6.0,7.0,29,0.00,,,0.00,Wunderground v.1.15,2013-05-08 22:38:00,
2013-05-08 17:42:00,79.6,42.7,29.92,NW,315,6.0,7.0,27,0.00,,,0.00,Wunderground v.1.15,2013-05-08 22:42:00,
2013-05-08 17:44:00,79.6,43.6,29.92,WNW,295,5.0,7.0,28,0.00,,,0.00,Wunderground v.1.15,2013-05-08 22:44:00,
2013-05-08 17:46:00,79.6,42.7,29.92,WNW,301,5.0,7.0,27,0.00,,,0.00,Wunderground v.1.15,2013-05-08 22:46:00,
2013-05-08 17:50:00,79.6,43.6,29.92,NW,309,6.0,6.0,28,0.00,,,0.00,Wunderground v.1.15,2013-05-08 22:50:00,
2013-05-08 17:52:00,79.6,43.6,29.92,WNW,287,5.0,7.0,28,0.00,,,0.00,Wunderground v.1.15,2013-05-08 22:52:00,
2013-05-08 17:56:00,79.4,43.4,29.92,West,264,5.0,7.0,28,0.00,,,0.00,Wunderground v.1.15,2013-05-08 22:56:00,
2013-05-08 17:58:00,79.4,43.4,29.92,WNW,283,5.0,7.0,28,0.00,,,0.00,Wunderground v.1.15,2013-05-08 22:58:00,
2013-05-08 18:02:00,79.3,42.4,29.92,WNW,290,4.0,7.0,27,0.00,,,0.00,Wunderground v.1.15,2013-05-08 23:02:00,
2013-05-08 18:08:00,79.1,43.2,29.92,NW,305,3.0,7.0,28,0.00,,,0.00,Wunderground v.1.15,2013-05-08 23:08:00,
2013-05-08 18:10:00,79.0,42.2,29.92,WNW,301,3.0,7.0,27,0.00,,,0.00,Wunderground v.1.15,2013-05-08 23:10:00,
2013-05-08 18:16:00,79.0,43.1,29.92,WSW,246,4.0,7.0,28,0.00,,,0.00,Wunderground v.1.15,2013-05-08 23:16:00,
2013-05-08 18:18:00,78.9,43.9,29.92,WNW,297,4.0,7.0,29,0.00,,,0.00,Wunderground v.1.15,2013-05-08 23:18:00,
2013-05-08 18:20:00,78.8,42.9,29.92,NW,304,4.0,7.0,28,0.00,,,0.00,Wunderground v.1.15,2013-05-08 23:20:00,
2013-05-08 18:22:00,78.8,42.9,29.92,WNW,294,4.0,7.0,28,0.00,,,0.00,Wunderground v.1.15,2013-05-08 23:22:00,
2013-05-08 18:26:00,78.8,42.9,29.92,WNW,290,4.0,7.0,28,0.00,,,0.00,Wunderground v.1.15,2013-05-08 23:26:00,
2013-05-08 18:30:00,78.7,41.9,29.92,WNW,285,3.0,3.0,27,0.00,,,0.00,Wunderground v.1.15,2013-05-08 23:30:00,
2013-05-08 18:32:00,78.6,41.8,29.92,West,266,3.0,7.0,27,0.00,,,0.00,Wunderground v.1.15,2013-05-08 23:32:00,
2013-05-08 18:36:00,78.7,42.8,29.92,WNW,295,3.0,7.0,28,0.00,,,0.00,Wunderground v.1.15,2013-05-08 23:36:00,
2013-05-08 18:38:00,78.6,43.7,29.92,WNW,284,2.0,7.0,29,0.00,,,0.00,Wunderground v.1.15,2013-05-08 23:38:00,
2013-05-08 18:40:00,78.6,42.8,29.92,WNW,294,2.0,7.0,28,0.00,,,0.00,Wunderground v.1.15,2013-05-08 23:40:00,
2013-05-08 18:42:00,78.6,43.7,29.92,WSW,248,2.0,7.0,29,0.00,,,0.00,Wunderground v.1.15,2013-05-08 23:42:00,
2013-05-08 18:44:00,78.5,43.6,29.92,WNW,291,2.0,7.0,29,0.00,,,0.00,Wunderground v.1.15,2013-05-08 23:44:00,
2013-05-08 18:48:00,78.4,44.4,29.92,WNW,288,3.0,7.0,30,0.00,,,0.00,Wunderground v.1.15,2013-05-08 23:48:00,
2013-05-08 18:50:00,78.3,44.3,29.92,West,276,3.0,3.0,30,0.00,,,0.00,Wunderground v.1.15,2013-05-08 23:50:00,
2013-05-08 18:54:00,78.2,45.1,29.92,WNW,285,2.0,7.0,31,0.00,,,0.00,Wunderground v.1.15,2013-05-08 23:54:00,
2013-05-08 18:56:00,78.1,45.0,29.92,West,266,2.0,7.0,31,0.00,,,0.00,Wunderground v.1.15,2013-05-08 23:56:00,
2013-05-08 18:58:00,78.1,45.0,29.92,West,260,2.0,7.0,31,0.00,,,0.00,Wunderground v.1.15,2013-05-08 23:58:00,
2013-05-08 19:00:00,78.1,44.1,29.92,WSW,255,2.0,2.0,30,0.00,,,0.00,Wunderground v.1.15,2013-05-09 00:00:00,
2013-05-08 19:02:00,78.1,45.0,29.92,WSW,255,1.0,7.0,31,0.00,,,0.00,Wunderground v.1.15,2013-05-09 00:02:00,
2013-05-08 19:06:00,78.0,46.6,29.92,SW,218,1.0,7.0,33,0.00,,,0.00,Wunderground v.1.15,2013-05-09 00:06:00,
2013-05-08 19:08:00,77.7,47.9,29.92,SW,233,2.0,7.0,35,0.00,,,0.00,Wunderground v.1.15,2013-05-09 00:08:00,
2013-05-08 19:10:00,77.5,47.7,29.92,WSW,243,2.0,7.0,35,0.00,,,0.00,Wunderground v.1.15,2013-05-09 00:10:00,
2013-05-08 19:14:00,77.2,47.4,29.92,SW,214,4.0,7.0,35,0.00,,,0.00,Wunderground v.1.15,2013-05-09 00:14:00,
2013-05-08 19:16:00,77.0,48.0,29.92,WSW,257,4.0,7.0,36,0.00,,,0.00,Wunderground v.1.15,2013-05-09 00:16:00,
2013-05-08 19:18:00,76.9,48.6,29.92,WSW,253,4.0,7.0,37,0.00,,,0.00,Wunderground v.1.15,2013-05-09 00:18:00,
2013-05-08 19:20:00,76.8,48.6,29.92,SW,217,4.0,7.0,37,0.00,,,0.00,Wunderground v.1.15,2013-05-09 00:20:00,
2013-05-08 19:24:00,76.5,49.0,29.92,WSW,242,5.0,7.0,38,0.00,,,0.00,Wunderground v.1.15,2013-05-09 00:24:00,
2013-05-08 19:26:00,76.5,49.0,29.92,WSW,246,4.0,7.0,38,0.00,,,0.00,Wunderground v.1.15,2013-05-09 00:26:00,
2013-05-08 19:28:00,76.4,48.9,29.92,West,267,4.0,7.0,38,0.00,,,0.00,Wunderground v.1.15,2013-05-09 00:28:00,
2013-05-08 19:30:00,76.3,48.8,29.92,WSW,255,4.0,4.0,38,0.00,,,0.00,Wunderground v.1.15,2013-05-09 00:30:00,
2013-05-08 19:34:00,76.2,49.4,29.92,West,271,4.0,7.0,39,0.00,,,0.00,Wunderground v.1.15,2013-05-09 00:34:00,
2013-05-08 19:35:00,76.1,49.3,29.92,WSW,253,4.0,7.0,39,0.00,,,0.00,Wunderground v.1.15,2013-05-09 00:35:00,
2013-05-08 19:38:00,76.0,49.9,29.92,SW,233,4.0,7.0,40,0.00,,,0.00,Wunderground v.1.15,2013-05-09 00:38:00,
2013-05-08 19:40:00,75.9,49.8,29.92,West,264,3.0,3.0,40,0.00,,,0.00,Wunderground v.1.15,2013-05-09 00:40:00,
2013-05-08 19:41:00,75.7,50.3,29.92,WNW,290,3.0,7.0,41,0.00,,,0.00,Wunderground v.1.15,2013-05-09 00:41:00,
2013-05-08 19:44:00,75.5,50.1,29.92,West,271,3.0,7.0,41,0.00,,,0.00,Wunderground v.1.15,2013-05-09 00:44:00,
2013-05-08 19:46:00,75.4,50.1,29.92,WSW,257,3.0,7.0,41,0.00,,,0.00,Wunderground v.1.15,2013-05-09 00:46:00,
2013-05-08 19:48:00,75.2,49.9,29.92,West,280,3.0,7.0,41,0.00,,,0.00,Wunderground v.1.15,2013-05-09 00:48:00,
2013-05-08 19:50:00,75.1,49.8,29.92,West,267,3.0,7.0,41,0.00,,,0.00,Wunderground v.1.15,2013-05-09 00:50:00,
2013-05-08 19:52:00,75.0,49.7,29.92,West,260,3.0,7.0,41,0.00,,,0.00,Wunderground v.1.15,2013-05-09 00:52:00,
2013-05-08 19:54:00,74.9,50.3,29.92,WNW,283,3.0,7.0,42,0.00,,,0.00,Wunderground v.1.15,2013-05-09 00:54:00,
2013-05-08 19:58:00,74.5,49.9,29.92,WNW,293,3.0,7.0,42,0.00,,,0.00,Wunderground v.1.15,2013-05-09 00:58:00,
2013-05-08 20:00:00,74.5,49.9,29.93,WNW,288,3.0,7.0,42,0.00,,,0.00,Wunderground v.1.15,2013-05-09 01:00:00,
2013-05-08 20:04:00,74.2,49.6,29.93,WNW,288,2.0,7.0,42,0.00,,,0.00,Wunderground v.1.15,2013-05-09 01:04:00,
2013-05-08 20:06:00,74.2,49.6,29.93,WNW,288,2.0,7.0,42,0.00,,,0.00,Wunderground v.1.15,2013-05-09 01:06:00,
2013-05-08 20:08:00,74.1,49.5,29.93,WNW,294,2.0,7.0,42,0.00,,,0.00,Wunderground v.1.15,2013-05-09 01:08:00,
2013-05-08 20:12:00,73.8,49.9,29.93,West,280,2.0,7.0,43,0.00,,,0.00,Wunderground v.1.15,2013-05-09 01:12:00,
2013-05-08 20:14:00,73.7,49.8,29.93,WNW,283,2.0,7.0,43,0.00,,,0.00,Wunderground v.1.15,2013-05-09 01:14:00,
2013-05-08 20:16:00,73.7,49.8,29.93,West,267,2.0,7.0,43,0.00,,,0.00,Wunderground v.1.15,2013-05-09 01:16:00,
2013-05-08 20:18:00,73.6,49.7,29.93,West,270,2.0,7.0,43,0.00,,,0.00,Wunderground v.1.15,2013-05-09 01:18:00,
2013-05-08 20:22:00,73.5,49.6,29.93,West,280,1.0,7.0,43,0.00,,,0.00,Wunderground v.1.15,2013-05-09 01:22:00,
2013-05-08 20:26:00,73.4,49.5,29.93,West,270,1.0,7.0,43,0.00,,,0.00,Wunderground v.1.15,2013-05-09 01:26:00,
2013-05-08 20:28:00,73.4,49.5,29.93,West,276,1.0,7.0,43,0.00,,,0.00,Wunderground v.1.15,2013-05-09 01:28:00,
2013-05-08 20:32:00,73.3,49.4,29.93,West,277,1.0,7.0,43,0.00,,,0.00,Wunderground v.1.15,2013-05-09 01:32:00,
2013-05-08 20:33:00,73.1,49.9,29.93,WNW,284,1.0,7.0,44,0.00,,,0.00,Wunderground v.1.15,2013-05-09 01:33:00,
2013-05-08 20:35:00,72.9,49.7,29.93,WNW,284,1.0,7.0,44,0.00,,,0.00,Wunderground v.1.15,2013-05-09 01:35:00,
2013-05-08 20:38:00,72.8,49.6,29.93,WNW,284,1.0,7.0,44,0.00,,,0.00,Wunderground v.1.15,2013-05-09 01:38:00,
2013-05-08 20:44:00,72.9,49.7,29.93,WNW,290,1.0,7.0,44,0.00,,,0.00,Wunderground v.1.15,2013-05-09 01:44:00,
2013-05-08 20:46:00,72.8,49.6,29.93,NW,311,1.0,7.0,44,0.00,,,0.00,Wunderground v.1.15,2013-05-09 01:46:00,
2013-05-08 20:48:00,72.8,49.0,29.93,NW,311,1.0,7.0,43,0.00,,,0.00,Wunderground v.1.15,2013-05-09 01:48:00,
2013-05-08 20:52:00,72.9,49.7,29.93,NW,311,2.0,7.0,44,0.00,,,0.00,Wunderground v.1.15,2013-05-09 01:52:00,
2013-05-08 20:56:00,72.8,49.6,29.94,NW,311,2.0,7.0,44,0.00,,,0.00,Wunderground v.1.15,2013-05-09 01:56:00,
2013-05-08 21:00:00,72.6,50.0,29.94,NW,316,2.0,7.0,45,0.00,,,0.00,Wunderground v.1.15,2013-05-09 02:00:00,
2013-05-08 21:02:00,72.3,49.8,29.94,NNW,335,2.0,7.0,45,0.00,,,0.00,Wunderground v.1.15,2013-05-09 02:02:00,
2013-05-08 21:08:00,71.9,50.0,29.94,NNW,336,2.0,7.0,46,0.00,,,0.00,Wunderground v.1.15,2013-05-09 02:08:00,
2013-05-08 21:12:00,71.9,49.4,29.94,NNW,336,2.0,7.0,45,0.00,,,0.00,Wunderground v.1.15,2013-05-09 02:12:00,
2013-05-08 21:16:00,71.9,49.4,29.94,NNW,337,2.0,7.0,45,0.00,,,0.00,Wunderground v.1.15,2013-05-09 02:16:00,
2013-05-08 21:18:00,72.0,49.5,29.94,NNW,337,2.0,7.0,45,0.00,,,0.00,Wunderground v.1.15,2013-05-09 02:18:00,
2013-05-08 21:21:00,72.1,49.6,29.94,NNW,337,2.0,7.0,45,0.00,,,0.00,Wunderground v.1.15,2013-05-09 02:21:00,
2013-05-08 21:28:00,72.2,49.1,29.94,NNW,338,2.0,7.0,44,0.00,,,0.00,Wunderground v.1.15,2013-05-09 02:28:00,
2013-05-08 21:30:00,72.3,49.2,29.94,NNW,337,2.0,7.0,44,0.00,,,0.00,Wunderground v.1.15,2013-05-09 02:30:00,
2013-05-08 21:32:00,72.3,49.2,29.94,NNW,338,2.0,7.0,44,0.00,,,0.00,Wunderground v.1.15,2013-05-09 02:32:00,
2013-05-08 21:34:00,72.3,49.2,29.94,NNW,338,2.0,7.0,44,0.00,,,0.00,Wunderground v.1.15,2013-05-09 02:34:00,
2013-05-08 21:38:00,72.2,49.7,29.94,NNW,337,2.0,7.0,45,0.00,,,0.00,Wunderground v.1.15,2013-05-09 02:38:00,
2013-05-08 21:39:00,72.2,49.7,29.94,NNW,337,2.0,7.0,45,0.00,,,0.00,Wunderground v.1.15,2013-05-09 02:39:00,
2013-05-08 21:45:00,71.8,49.3,29.94,NNW,337,2.0,7.0,45,0.00,,,0.00,Wunderground v.1.15,2013-05-09 02:45:00,
2013-05-08 21:48:00,71.7,49.2,29.94,NNW,338,2.0,7.0,45,0.00,,,0.00,Wunderground v.1.15,2013-05-09 02:48:00,
2013-05-08 21:52:00,71.6,49.1,29.94,NNW,338,2.0,7.0,45,0.00,,,0.00,Wunderground v.1.15,2013-05-09 02:52:00,
2013-05-08 21:54:00,71.7,49.2,29.94,NNW,337,2.0,7.0,45,0.00,,,0.00,Wunderground v.1.15,2013-05-09 02:54:00,
2013-05-08 21:56:00,71.8,49.3,29.94,NNW,338,2.0,7.0,45,0.00,,,0.00,Wunderground v.1.15,2013-05-09 02:56:00,
2013-05-08 21:58:00,71.7,49.2,29.94,NNW,338,2.0,7.0,45,0.00,,,0.00,Wunderground v.1.15,2013-05-09 02:58:00,
2013-05-08 22:01:00,71.7,49.2,29.94,NNW,338,2.0,7.0,45,0.00,,,0.00,Wunderground v.1.15,2013-05-09 03:01:00,
2013-05-08 22:04:00,71.6,49.1,29.94,NNW,337,2.0,7.0,45,0.00,,,0.00,Wunderground v.1.15,2013-05-09 03:04:00,
2013-05-08 22:06:00,71.6,49.1,29.94,NNW,339,2.0,7.0,45,0.00,,,0.00,Wunderground v.1.15,2013-05-09 03:06:00,
2013-05-08 22:10:00,71.4,48.9,29.94,NNW,339,2.0,2.0,45,0.00,,,0.00,Wunderground v.1.15,2013-05-09 03:10:00,
2013-05-08 22:12:00,71.3,48.9,29.94,NNW,338,2.0,7.0,45,0.00,,,0.00,Wunderground v.1.15,2013-05-09 03:12:00,
2013-05-08 22:14:00,71.3,48.9,29.94,NNW,338,1.0,7.0,45,0.00,,,0.00,Wunderground v.1.15,2013-05-09 03:14:00,
2013-05-08 22:16:00,71.2,49.4,29.94,NNW,339,1.0,7.0,46,0.00,,,0.00,Wunderground v.1.15,2013-05-09 03:16:00,
2013-05-08 22:18:00,71.1,49.3,29.94,NNW,339,1.0,7.0,46,0.00,,,0.00,Wunderground v.1.15,2013-05-09 03:18:00,
2013-05-08 22:22:00,70.8,49.6,29.94,NNW,338,1.0,7.0,47,0.00,,,0.00,Wunderground v.1.15,2013-05-09 03:22:00,
2013-05-08 22:24:00,70.6,49.4,29.94,NNW,339,1.0,7.0,47,0.00,,,0.00,Wunderground v.1.15,2013-05-09 03:24:00,
2013-05-08 22:28:00,70.3,49.1,29.94,NNW,338,1.0,7.0,47,0.00,,,0.00,Wunderground v.1.15,2013-05-09 03:28:00,
2013-05-08 22:30:00,70.2,49.0,29.94,NNW,339,1.0,7.0,47,0.00,,,0.00,Wunderground v.1.15,2013-05-09 03:30:00,
2013-05-08 22:32:00,70.1,49.5,29.94,NNW,339,1.0,7.0,48,0.00,,,0.00,Wunderground v.1.15,2013-05-09 03:32:00,
2013-05-08 22:34:00,70.0,49.4,29.94,NNW,338,1.0,7.0,48,0.00,,,0.00,Wunderground v.1.15,2013-05-09 03:34:00,
2013-05-08 22:38:00,69.6,50.7,29.94,NE,34,1.0,7.0,51,0.00,,,0.00,Wunderground v.1.15,2013-05-09 03:38:00,
2013-05-08 22:42:00,68.7,50.4,29.94,East,95,1.0,7.0,52,0.00,,,0.00,Wunderground v.1.15,2013-05-09 03:42:00,
2013-05-08 22:44:00,68.2,49.9,29.94,East,94,1.0,7.0,52,0.00,,,0.00,Wunderground v.1.15,2013-05-09 03:44:00,
2013-05-08 22:48:00,67.7,50.5,29.94,East,98,2.0,7.0,54,0.00,,,0.00,Wunderground v.1.15,2013-05-09 03:48:00,
2013-05-08 22:50:00,67.4,50.2,29.94,East,92,2.0,7.0,54,0.00,,,0.00,Wunderground v.1.15,2013-05-09 03:50:00,
2013-05-08 22:54:00,67.1,50.4,29.94,East,88,3.0,7.0,55,0.00,,,0.00,Wunderground v.1.15,2013-05-09 03:54:00,
2013-05-08 22:56:00,66.9,50.7,29.94,ENE,78,3.0,7.0,56,0.00,,,0.00,Wunderground v.1.15,2013-05-09 03:56:00,
2013-05-08 22:58:00,66.6,51.8,29.94,ENE,77,3.0,7.0,59,0.00,,,0.00,Wunderground v.1.15,2013-05-09 03:58:00,
2013-05-08 23:00:00,65.9,52.1,29.94,ENE,75,3.0,7.0,61,0.00,,,0.00,Wunderground v.1.15,2013-05-09 04:00:00,
2013-05-08 23:02:00,65.5,52.1,29.94,East,86,3.0,7.0,62,0.00,,,0.00,Wunderground v.1.15,2013-05-09 04:02:00,
2013-05-08 23:04:00,65.2,52.3,29.94,East,96,3.0,7.0,63,0.00,,,0.00,Wunderground v.1.15,2013-05-09 04:04:00,
2013-05-08 23:06:00,65.0,52.1,29.94,ESE,112,3.0,7.0,63,0.00,,,0.00,Wunderground v.1.15,2013-05-09 04:06:00,
2013-05-08 23:08:00,64.8,51.5,29.93,ESE,115,3.0,7.0,62,0.00,,,0.00,Wunderground v.1.15,2013-05-09 04:08:00,
2013-05-08 23:10:00,64.7,51.4,29.93,ESE,103,3.0,3.0,62,0.00,,,0.00,Wunderground v.1.15,2013-05-09 04:10:00,
2013-05-08 23:14:00,64.4,51.5,29.93,East,86,2.0,7.0,63,0.00,,,0.00,Wunderground v.1.15,2013-05-09 04:14:00,
2013-05-08 23:16:00,64.4,51.5,29.93,East,79,2.0,7.0,63,0.00,,,0.00,Wunderground v.1.15,2013-05-09 04:16:00,
2013-05-08 23:18:00,64.6,51.3,29.93,East,82,2.0,7.0,62,0.00,,,0.00,Wunderground v.1.15,2013-05-09 04:18:00,
2013-05-08 23:22:00,64.6,50.8,29.93,NE,56,2.0,7.0,61,0.00,,,0.00,Wunderground v.1.15,2013-05-09 04:22:00,
2013-05-08 23:24:00,65.0,50.8,29.93,ENE,71,3.0,7.0,60,0.00,,,0.00,Wunderground v.1.15,2013-05-09 04:24:00,
2013-05-08 23:26:00,65.8,50.6,29.92,ENE,78,3.0,7.0,58,0.00,,,0.00,Wunderground v.1.15,2013-05-09 04:26:00,
2013-05-08 23:28:00,66.5,50.3,29.92,East,80,4.0,7.0,56,0.00,,,0.00,Wunderground v.1.15,2013-05-09 04:28:00,
2013-05-08 23:31:00,66.8,50.6,29.92,East,81,5.0,7.0,56,0.00,,,0.00,Wunderground v.1.15,2013-05-09 04:31:00,
2013-05-08 23:34:00,66.6,51.8,29.92,ENE,63,6.0,10.0,59,0.00,,,0.00,Wunderground v.1.15,2013-05-09 04:34:00,
2013-05-08 23:36:00,66.0,51.7,29.92,East,81,7.0,10.0,60,0.00,,,0.00,Wunderground v.1.15,2013-05-09 04:36:00,
2013-05-08 23:38:00,65.7,51.4,29.92,East,81,7.0,10.0,60,0.00,,,0.00,Wunderground v.1.15,2013-05-09 04:38:00,
2013-05-08 23:42:00,65.7,51.4,29.92,East,80,8.0,8.0,60,0.00,,,0.00,Wunderground v.1.15,2013-05-09 04:42:00,
2013-05-08 23:44:00,65.4,51.6,29.92,ESE,103,7.0,8.0,61,0.00,,,0.00,Wunderground v.1.15,2013-05-09 04:44:00,
2013-05-08 23:46:00,65.2,51.4,29.92,East,89,7.0,8.0,61,0.00,,,0.00,Wunderground v.1.15,2013-05-09 04:46:00,
2013-05-08 23:48:00,65.3,51.1,29.92,East,86,6.0,8.0,60,0.00,,,0.00,Wunderground v.1.15,2013-05-09 04:48:00,
2013-05-08 23:50:00,65.5,51.2,29.92,East,87,6.0,6.0,60,0.00,,,0.00,Wunderground v.1.15,2013-05-09 04:50:00,
2013-05-08 23:52:00,65.5,50.8,29.92,East,88,6.0,7.0,59,0.00,,,0.00,Wunderground v.1.15,2013-05-09 04:52:00,
2013-05-08 23:54:00,65.6,50.9,29.92,East,91,6.0,7.0,59,0.00,,,0.00,Wunderground v.1.15,2013-05-09 04:54:00,
2013-05-08 23:56:00,65.6,50.9,29.92,East,92,5.0,7.0,59,0.00,,,0.00,Wunderground v.1.15,2013-05-09 04:56:00,